Location: Marse
(42.1502°N, 110.9866°W)
Time: 02:53:49
(UTC+00:00)

RS-15 - Visible Passes

Search period start: 26 June 2022 00:00
Search period end: 06 July 2022 00:00
Orbit: 1881 x 2163 km, 64.8° (Epoch: 25 June)

Date Brightness Start Highest point End Pass type
(mag) Time Alt. Az. Time Alt. Az. Time Alt. Az.
26 Jun 9.8 04:42:12 10° NW 04:52:12 27° NNE 05:02:06 10° ENE visible
26 Jun 8.6 06:56:05 10° NNW 07:08:17 57° NE 07:20:01 10° SE visible
26 Jun 8.3 09:09:08 10° NW 09:20:39 49° WSW 09:28:43 21° S visible
27 Jun 9.9 04:05:23 10° NW 04:15:04 25° N 04:24:42 10° ENE visible
27 Jun 8.9 06:19:56 10° NNW 06:31:49 48° NE 06:43:17 10° ESE visible
27 Jun 8.1 08:32:50 10° NW 08:44:52 63° WSW 08:52:42 25° S visible
27 Jun 9.4 10:50:07 10° WNW 10:54:34 13° W 10:58:58 10° WSW visible
28 Jun 9.9 03:28:21 10° NW 03:37:53 25° N 03:47:24 10° NE visible
28 Jun 9.1 05:43:44 10° NNW 05:55:11 40° NE 06:06:18 10° ESE visible
28 Jun 8.1 07:56:37 10° NW 08:08:58 78° WSW 08:16:53 26° SSE visible
28 Jun 9.1 10:11:44 10° WNW 10:19:17 19° W 10:24:32 14° SW visible
29 Jun 9.3 05:07:25 10° NNW 05:18:25 34° NNE 05:29:08 10° E visible
29 Jun 8.1 07:20:28 10° NNW 07:32:56 86° ENE 07:41:12 25° SE visible
29 Jun 8.9 09:34:31 10° NW 09:43:52 27° W 09:48:52 20° SW visible
30 Jun 9.5 04:30:59 10° NW 04:41:30 30° NNE 04:51:49 10° E visible
30 Jun 8.3 06:44:20 10° NNW 06:56:45 71° NE 07:05:38 22° SE visible
30 Jun 8.6 08:57:47 10° NW 09:08:21 36° WSW 09:13:19 27° SW visible
01 Jul 9.7 03:54:24 10° NW 04:04:28 27° NNE 04:14:24 10° ENE visible
01 Jul 8.5 06:08:13 10° NNW 06:20:27 59° NE 06:30:10 17° ESE visible
01 Jul 8.4 08:21:18 10° NW 08:32:42 47° WSW 08:37:52 32° SSW visible
02 Jul 9.8 03:17:37 10° NW 03:27:20 25° N 03:37:00 10° ENE visible
02 Jul 8.8 05:32:04 10° NNW 05:43:59 49° NE 05:54:47 12° ESE visible
02 Jul 8.2 07:44:58 10° NW 07:56:57 61° WSW 08:02:29 36° S visible
02 Jul 9.5 10:02:52 10° WNW 10:06:32 12° W 10:10:11 10° WSW visible
03 Jul 9.0 04:55:51 10° NNW 05:07:23 41° NE 05:18:33 10° ESE visible
03 Jul 8.1 07:08:45 10° NW 07:21:04 76° WSW 07:27:11 35° SSE visible
03 Jul 9.2 09:24:05 10° WNW 09:31:16 18° W 09:34:53 16° WSW visible
04 Jul 9.2 04:19:34 10° NNW 04:30:38 35° NNE 04:41:25 10° E visible
04 Jul 8.1 06:32:36 10° NW 06:45:03 88° ENE 06:51:56 32° SSE visible
04 Jul 9.0 08:46:46 10° NW 08:55:53 26° W 08:59:38 22° SW visible
05 Jul 9.4 03:43:10 10° NW 03:53:44 31° NNE 04:04:06 10° E visible
05 Jul 8.2 05:56:28 10° NNW 06:08:53 73° NE 06:16:44 26° SE visible
05 Jul 8.7 08:09:58 10° NW 08:20:23 35° WSW 08:24:27 28° SW visible
